Location: Greenwich
(51.4790°N, 0.0090°E)
Time: 20:46:16
(UTC+01:00)

Vanguard 3 - Visible Passes

Search period start: 17 June 2025 00:00
Search period end: 27 June 2025 00:00
Orbit: 508 x 3215 km, 33.4° (Epoch: 17 June)

Date Brightness Start Highest point End Pass type
(mag) Time Alt. Az. Time Alt. Az. Time Alt. Az.
17 Jun 10.3 01:09:28 10° W 01:24:24 30° SSW 01:36:10 10° SSE visible
17 Jun 10.5 03:31:16 10° WSW 03:34:45 11° SW 03:37:58 10° SW visible
17 Jun 10.3 23:46:09 10° WSW 00:02:53 38° SSW 00:16:59 10° SE visible
18 Jun 10.4 02:02:48 10° W 02:14:38 21° SW 02:21:58 15° S visible
18 Jun 10.3 22:23:50 10° WSW 22:40:46 42° S 22:56:40 10° SE visible
19 Jun 10.4 00:38:23 10° W 00:53:41 31° SSW 01:04:11 16° SSE visible
19 Jun 10.6 02:59:19 10° WSW 03:04:23 12° SW 03:08:03 11° SW visible
19 Jun 10.4 23:15:22 10° WSW 23:31:59 38° SSW 23:46:47 11° SE visible
20 Jun 10.4 01:31:36 10° W 01:44:02 22° SW 01:50:40 17° SSW visible
20 Jun 10.4 21:53:24 10° WSW 22:09:46 42° S 22:26:21 10° SE visible
21 Jun 10.5 00:07:30 10° W 00:22:52 31° SSW 00:33:28 17° SSE visible
21 Jun 10.7 02:27:48 10° WSW 02:33:53 12° SW 02:37:22 12° SW visible
21 Jun 10.4 22:44:49 10° WSW 23:01:00 38° SSW 23:16:25 11° SE visible
22 Jun 10.5 01:00:36 10° W 01:13:18 22° SW 01:20:20 17° SSW visible
22 Jun 10.6 23:36:49 10° W 23:51:57 31° SSW 00:03:23 16° SSE visible
23 Jun 10.8 01:56:38 10° WSW 02:03:17 13° SW 02:07:18 12° SW visible
23 Jun 10.5 22:14:30 10° WSW 22:30:01 38° SSW 22:46:16 10° SE visible
24 Jun 10.6 00:29:50 10° W 00:42:30 22° SW 00:50:26 16° S visible
24 Jun 10.6 23:06:23 10° W 23:21:01 30° SSW 23:33:39 14° SSE visible
25 Jun 10.9 01:25:50 10° WSW 01:32:36 13° SW 01:37:35 11° SSW visible
25 Jun 10.5 21:44:24 10° WSW 21:59:03 37° SSW 22:15:32 10° SE visible
25 Jun 10.8 23:59:19 10° W 00:11:39 22° SW 00:20:51 15° S visible
26 Jun 10.7 22:36:12 10° WSW 22:50:06 30° SSW 23:04:11 12° SSE visible
